Portada
METAR-TAF:

METAR-TAF

Aeroports :

Holland, Michigan, Estats Units d'Amèrica

latitud: 42-44-46N, longitud: 086-05-48W, altitud: 209 m

Observació

L'informe es va fer fa 7 minuts, a les 18:53 UTC
Vent 11 kt del Sud
Temperatura 31°C
Humitat 33%
Pressió 1015 hPa
Visibilitat: 16.1 km
Escasses núvols a una alçada de 6500 ft

METAR: KBIV 191853Z AUTO 18011KT 10SM FEW065 31/13 A2998 RMK AO2 SLP148 T03060128

Hora: 15:00 (19:00 UTC)


TAF: manca

Observacions i pronòstics meteorològics de més de 4000 aeroports (METAR i TAF).

Les estacions disponibles són els punts grocs i vermells al mapa.

Posi el ratolí al punt desitjat per veure el nom de l'estació.

Feu clic per veure les observacions i els pronòstics meteorològics.

Per canviar el mapa: feu clic els botons verds amb una creu de color negre per apropar; al botó verd amb un guió per allunyar la imatge; o en les fletxes verdes per a mapes adjacents.


METAR-TAF: